Location: Newark
(48.6461°N, 4.3644°W)
Time: 20:49:47
(UTC+00:00)

S-56A Canister/Altair - Pass Details

Date: 25 January 2020
Orbit: 633 x 2499 km, 38.9° (Epoch: 22 February)

Event Time Altitude Azimuth Distance (km) Brightness Sun altitude
Rises 20:38:26 0° 230° (SW) 4,009 11.7 -35.2°
Reaches altitude 10° 20:42:09 10° 217° (SW) 2,739 10.6 -35.8°
Enters shadow 20:43:25 14° 209° (SSW) 2,351 10.1 -36.0°
Maximum altitude 20:46:51 22° 168° (SSE) 1,687 - -36.5°
Drops below altitude 10° 20:50:40 10° 116° (ESE) 2,172 - -37.2°
Sets 20:53:13 0° 101° (E) 2,986 - -37.6°
